Location: ????????
(55.3155°N, 39.2900°E)
Time: 22:50:23
(UTC+00:00)

ALOS - Pass Details

Date: 14 April 2024
Orbit: 674 x 675 km, 98.0° (Epoch: 23 May)

Event Time Altitude Azimuth Distance (km) Brightness Sun altitude
Rises 00:02:19 0° 17° (NNE) 3,049 6.8 -17.2°
Reaches altitude 10° 00:04:37 10° 22° (NNE) 2,129 5.9 -17.0°
Maximum altitude 00:09:11 55° 101° (E) 822 2.8 -16.5°
Enters shadow 00:12:50 16° 176° (S) 1,768 4.0 -16.2°
